Time,TemperatureF,DewpointF,PressureIn,WindDirection,WindDirectionDegrees,WindSpeedMPH,WindSpeedGustMPH,Humidity,HourlyPrecipIn,Conditions,Clouds,dailyrainin,SoftwareType,DateUTC
2013-11-11 00:04:00,58.5,52.0,29.95,ESE,121,7.0,-999.0,80,-99.99,,,0.00,weatherlink.com 1.10,2013-11-10 22:04:00,
2013-11-11 00:19:00,58.6,52.0,29.95,ESE,115,5.0,-999.0,79,-99.99,,,0.00,weatherlink.com 1.10,2013-11-10 22:19:00,
2013-11-11 00:34:00,58.6,52.0,29.94,ESE,116,7.0,-999.0,79,-99.99,,,0.00,weatherlink.com 1.10,2013-11-10 22:34:00,
2013-11-11 00:49:00,58.8,52.0,29.94,ESE,122,8.0,-999.0,78,-99.99,,,0.00,weatherlink.com 1.10,2013-11-10 22:49:00,
2013-11-11 01:04:00,59.0,52.0,29.94,ESE,102,0.0,-999.0,77,-99.99,,,0.00,weatherlink.com 1.10,2013-11-10 23:04:00,
2013-11-11 01:19:00,58.8,52.0,29.94,ESE,110,4.0,-999.0,79,-99.99,,,0.00,weatherlink.com 1.10,2013-11-10 23:19:00,
2013-11-11 01:34:00,58.4,53.0,29.94,ESE,114,7.0,-999.0,81,-99.99,,,0.00,weatherlink.com 1.10,2013-11-10 23:34:00,
2013-11-11 01:49:00,58.2,52.0,29.95,SSE,159,9.0,-999.0,80,-99.99,,,0.00,weatherlink.com 1.10,2013-11-10 23:49:00,
2013-11-11 02:04:00,58.7,52.0,29.94,SE,132,5.0,-999.0,79,-99.99,,,0.00,weatherlink.com 1.10,2013-11-11 00:04:00,
2013-11-11 02:19:00,58.6,52.0,29.94,SE,128,5.0,-999.0,80,-99.99,,,0.00,weatherlink.com 1.10,2013-11-11 00:19:00,
2013-11-11 02:34:00,58.8,53.0,29.94,ESE,121,11.0,-999.0,80,-99.99,,,0.00,weatherlink.com 1.10,2013-11-11 00:34:00,
2013-11-11 02:49:00,58.8,53.0,29.95,ESE,121,8.0,-999.0,80,-99.99,,,0.00,weatherlink.com 1.10,2013-11-11 00:49:00,
2013-11-11 03:04:00,58.6,52.0,29.95,SE,146,5.0,-999.0,79,-99.99,,,0.00,weatherlink.com 1.10,2013-11-11 01:04:00,
2013-11-11 03:19:00,58.5,52.0,29.94,SE,128,6.0,-999.0,79,-99.99,,,0.00,weatherlink.com 1.10,2013-11-11 01:19:00,
2013-11-11 03:34:00,58.2,52.0,29.94,South,173,7.0,-999.0,80,-99.99,,,0.00,weatherlink.com 1.10,2013-11-11 01:34:00,
2013-11-11 03:49:00,58.6,52.0,29.95,South,169,6.0,-999.0,80,-99.99,,,0.00,weatherlink.com 1.10,2013-11-11 01:49:00,
2013-11-11 04:04:00,58.8,52.0,29.94,SE,138,4.0,-999.0,79,-99.99,,,0.00,weatherlink.com 1.10,2013-11-11 02:04:00,
2013-11-11 04:19:00,58.6,52.0,29.95,SE,138,5.0,-999.0,80,-99.99,,,0.00,weatherlink.com 1.10,2013-11-11 02:19:00,
2013-11-11 04:34:00,58.1,53.0,29.95,SE,135,5.0,-999.0,82,-99.99,,,0.00,weatherlink.com 1.10,2013-11-11 02:34:00,
2013-11-11 04:49:00,58.1,53.0,29.95,SSE,148,6.0,-999.0,83,-99.99,,,0.00,weatherlink.com 1.10,2013-11-11 02:49:00,
2013-11-11 05:04:00,57.6,53.0,29.95,ESE,117,5.0,-999.0,83,-99.99,,,0.00,weatherlink.com 1.10,2013-11-11 03:04:00,
2013-11-11 05:19:00,57.7,52.0,29.95,ESE,120,5.0,-999.0,81,-99.99,,,0.00,weatherlink.com 1.10,2013-11-11 03:19:00,
2013-11-11 05:34:00,57.6,52.0,29.95,SSE,159,2.0,-999.0,80,-99.99,,,0.00,weatherlink.com 1.10,2013-11-11 03:34:00,
2013-11-11 05:49:00,57.7,52.0,29.95,ESE,122,5.0,-999.0,81,-99.99,,,0.00,weatherlink.com 1.10,2013-11-11 03:49:00,
2013-11-11 06:04:00,57.5,52.0,29.96,SE,124,6.0,-999.0,82,-99.99,,,0.00,weatherlink.com 1.10,2013-11-11 04:04:00,
2013-11-11 06:19:00,57.5,53.0,29.96,SE,132,6.0,-999.0,84,-99.99,,,0.00,weatherlink.com 1.10,2013-11-11 04:19:00,
2013-11-11 06:34:00,57.2,52.0,29.96,SE,138,5.0,-999.0,82,-99.99,,,0.00,weatherlink.com 1.10,2013-11-11 04:34:00,
2013-11-11 06:49:00,57.5,51.0,29.96,SSE,155,5.0,-999.0,79,-99.99,,,0.00,weatherlink.com 1.10,2013-11-11 04:49:00,
2013-11-11 07:04:00,57.8,51.0,29.96,SE,138,6.0,-999.0,79,-99.99,,,0.00,weatherlink.com 1.10,2013-11-11 05:04:00,
2013-11-11 07:19:00,57.6,52.0,29.97,SE,126,1.0,-999.0,80,-99.99,,,0.00,weatherlink.com 1.10,2013-11-11 05:19:00,
2013-11-11 07:34:00,58.5,52.0,29.98,SE,134,4.0,-999.0,79,-99.99,,,0.00,weatherlink.com 1.10,2013-11-11 05:34:00,
2013-11-11 07:49:00,58.7,52.0,29.98,SE,140,1.0,-999.0,79,-99.99,,,0.00,weatherlink.com 1.10,2013-11-11 05:49:00,
2013-11-11 08:04:00,59.6,53.0,29.99,SE,141,4.0,-999.0,79,-99.99,,,0.00,weatherlink.com 1.10,2013-11-11 06:04:00,
2013-11-11 08:19:00,60.0,53.0,30.00,SE,141,2.0,-999.0,78,-99.99,,,0.00,weatherlink.com 1.10,2013-11-11 06:19:00,
2013-11-11 08:34:00,60.7,53.0,30.00,SE,144,4.0,-999.0,77,-99.99,,,0.00,weatherlink.com 1.10,2013-11-11 06:34:00,
2013-11-11 08:49:00,61.9,54.0,30.00,SE,136,7.0,-999.0,74,-99.99,,,0.00,weatherlink.com 1.10,2013-11-11 06:49:00,
2013-11-11 09:05:00,62.7,52.0,30.01,SE,124,5.0,-999.0,68,-99.99,,,0.00,weatherlink.com 1.10,2013-11-11 07:05:00,
2013-11-11 09:20:00,62.8,52.0,30.01,ESE,117,2.0,-999.0,69,-99.99,,,0.00,weatherlink.com 1.10,2013-11-11 07:20:00,
2013-11-11 09:35:00,62.1,53.0,30.01,East,98,6.0,-999.0,72,-99.99,,,0.00,weatherlink.com 1.10,2013-11-11 07:35:00,
2013-11-11 09:50:00,62.2,51.0,30.01,SE,141,4.0,-999.0,67,-99.99,,,0.00,weatherlink.com 1.10,2013-11-11 07:50:00,
2013-11-11 10:05:00,62.7,51.0,30.01,ESE,120,13.0,-999.0,66,-99.99,,,0.00,weatherlink.com 1.10,2013-11-11 08:05:00,
2013-11-11 10:20:00,64.0,50.0,30.01,SE,134,8.0,-999.0,60,-99.99,,,0.00,weatherlink.com 1.10,2013-11-11 08:20:00,
2013-11-11 10:35:00,64.9,50.0,30.02,SE,133,7.0,-999.0,59,-99.99,,,0.00,weatherlink.com 1.10,2013-11-11 08:35:00,
2013-11-11 10:50:00,65.1,49.0,30.02,SE,126,11.0,-999.0,57,-99.99,,,0.00,weatherlink.com 1.10,2013-11-11 08:50:00,
2013-11-11 11:05:00,65.8,48.0,30.02,ESE,116,12.0,-999.0,53,-99.99,,,0.00,weatherlink.com 1.10,2013-11-11 09:05:00,
2013-11-11 11:20:00,66.0,48.0,30.02,SE,131,4.0,-999.0,52,-99.99,,,0.00,weatherlink.com 1.10,2013-11-11 09:20:00,
2013-11-11 11:35:00,67.0,47.0,30.02,SSE,155,5.0,-999.0,49,-99.99,,,0.00,weatherlink.com 1.10,2013-11-11 09:35:00,
2013-11-11 11:50:00,67.1,49.0,30.01,ESE,117,5.0,-999.0,52,-99.99,,,0.00,weatherlink.com 1.10,2013-11-11 09:50:00,
2013-11-11 12:05:00,66.8,48.0,30.02,SE,130,6.0,-999.0,51,-99.99,,,0.00,weatherlink.com 1.10,2013-11-11 10:05:00,
2013-11-11 12:20:00,67.2,48.0,30.02,SE,146,6.0,-999.0,51,-99.99,,,0.00,weatherlink.com 1.10,2013-11-11 10:20:00,
2013-11-11 12:35:00,66.7,46.0,30.02,SE,144,11.0,-999.0,48,-99.99,,,0.00,weatherlink.com 1.10,2013-11-11 10:35:00,
2013-11-11 12:50:00,67.4,46.0,30.02,South,182,7.0,-999.0,47,-99.99,,,0.00,weatherlink.com 1.10,2013-11-11 10:50:00,
2013-11-11 13:05:00,67.7,48.0,30.02,SE,133,5.0,-999.0,49,-99.99,,,0.00,weatherlink.com 1.10,2013-11-11 11:05:00,
2013-11-11 13:20:00,66.9,48.0,30.02,SE,130,6.0,-999.0,51,-99.99,,,0.00,weatherlink.com 1.10,2013-11-11 11:20:00,
2013-11-11 13:35:00,66.8,47.0,30.03,SE,140,5.0,-999.0,50,-99.99,,,0.00,weatherlink.com 1.10,2013-11-11 11:35:00,
2013-11-11 13:50:00,66.8,48.0,30.03,SE,129,5.0,-999.0,51,-99.99,,,0.00,weatherlink.com 1.10,2013-11-11 11:50:00,
2013-11-11 14:05:00,66.7,47.0,30.03,ESE,111,4.0,-999.0,49,-99.99,,,0.00,weatherlink.com 1.10,2013-11-11 12:05:00,
2013-11-11 14:20:00,66.9,46.0,30.04,ESE,123,4.0,-999.0,47,-99.99,,,0.00,weatherlink.com 1.10,2013-11-11 12:20:00,
2013-11-11 14:35:00,67.0,46.0,30.04,ESE,119,4.0,-999.0,47,-99.99,,,0.00,weatherlink.com 1.10,2013-11-11 12:35:00,
2013-11-11 14:50:00,67.5,47.0,30.04,ESE,123,4.0,-999.0,48,-99.99,,,0.00,weatherlink.com 1.10,2013-11-11 12:50:00,
2013-11-11 15:05:00,67.4,46.0,30.04,ESE,119,2.0,-999.0,47,-99.99,,,0.00,weatherlink.com 1.10,2013-11-11 13:05:00,
2013-11-11 15:20:00,67.3,46.0,30.04,ESE,109,0.0,-999.0,46,-99.99,,,0.00,weatherlink.com 1.10,2013-11-11 13:20:00,
2013-11-11 15:35:00,67.1,45.0,30.05,ESE,108,4.0,-999.0,45,-99.99,,,0.00,weatherlink.com 1.10,2013-11-11 13:35:00,
2013-11-11 15:50:00,67.1,45.0,30.05,ESE,123,5.0,-999.0,45,-99.99,,,0.00,weatherlink.com 1.10,2013-11-11 13:50:00,
2013-11-11 16:05:00,67.1,44.0,30.05,ESE,113,5.0,-999.0,44,-99.99,,,0.00,weatherlink.com 1.10,2013-11-11 14:05:00,
2013-11-11 16:20:00,66.8,44.0,30.05,ESE,119,6.0,-999.0,44,-99.99,,,0.00,weatherlink.com 1.10,2013-11-11 14:20:00,
2013-11-11 16:35:00,66.7,45.0,30.05,ESE,118,2.0,-999.0,45,-99.99,,,0.00,weatherlink.com 1.10,2013-11-11 14:35:00,
2013-11-11 16:50:00,66.3,44.0,30.05,ESE,109,4.0,-999.0,45,-99.99,,,0.00,weatherlink.com 1.10,2013-11-11 14:50:00,
2013-11-11 17:05:00,66.4,44.0,30.05,ESE,105,1.0,-999.0,45,-99.99,,,0.00,weatherlink.com 1.10,2013-11-11 15:05:00,
2013-11-11 17:20:00,66.2,44.0,30.06,ESE,104,4.0,-999.0,45,-99.99,,,0.00,weatherlink.com 1.10,2013-11-11 15:20:00,
2013-11-11 17:35:00,66.3,44.0,30.06,ENE,61,2.0,-999.0,45,-99.99,,,0.00,weatherlink.com 1.10,2013-11-11 15:35:00,
2013-11-11 17:50:00,66.3,44.0,30.06,ENE,68,1.0,-999.0,45,-99.99,,,0.00,weatherlink.com 1.10,2013-11-11 15:50:00,
2013-11-11 18:05:00,66.0,44.0,30.07,ENE,69,2.0,-999.0,45,-99.99,,,0.00,weatherlink.com 1.10,2013-11-11 16:05:00,
2013-11-11 18:20:00,66.5,44.0,30.07,ENE,60,2.0,-999.0,44,-99.99,,,0.00,weatherlink.com 1.10,2013-11-11 16:20:00,
2013-11-11 18:35:00,66.2,43.0,30.08,ENE,61,3.0,-999.0,44,-99.99,,,0.00,weatherlink.com 1.10,2013-11-11 16:35:00,
2013-11-11 18:50:00,66.2,43.0,30.08,ENE,57,4.0,-999.0,43,-99.99,,,0.00,weatherlink.com 1.10,2013-11-11 16:50:00,
2013-11-11 19:05:00,66.4,43.0,30.09,ENE,57,3.0,-999.0,43,-99.99,,,0.00,weatherlink.com 1.10,2013-11-11 17:05:00,
2013-11-11 19:36:00,66.2,42.0,30.10,ENE,58,4.0,-999.0,42,-99.99,,,0.00,weatherlink.com 1.10,2013-11-11 17:36:00,
2013-11-11 19:51:00,66.7,43.0,30.10,ENE,58,3.0,-999.0,42,-99.99,,,0.00,weatherlink.com 1.10,2013-11-11 17:51:00,
2013-11-11 20:06:00,66.7,43.0,30.11,ENE,58,2.0,-999.0,42,-99.99,,,0.00,weatherlink.com 1.10,2013-11-11 18:06:00,
2013-11-11 20:21:00,66.8,42.0,30.11,ENE,58,3.0,-999.0,41,-99.99,,,0.00,weatherlink.com 1.10,2013-11-11 18:21:00,
2013-11-11 20:36:00,67.2,43.0,30.12,ENE,59,5.0,-999.0,41,-99.99,,,0.00,weatherlink.com 1.10,2013-11-11 18:36:00,
2013-11-11 20:51:00,66.9,43.0,30.12,ENE,57,6.0,-999.0,42,-99.99,,,0.00,weatherlink.com 1.10,2013-11-11 18:51:00,
2013-11-11 21:06:00,66.8,43.0,30.12,ENE,57,0.0,-999.0,42,-99.99,,,0.00,weatherlink.com 1.10,2013-11-11 19:06:00,
2013-11-11 21:21:00,66.2,43.0,30.13,ENE,57,3.0,-999.0,44,-99.99,,,0.00,weatherlink.com 1.10,2013-11-11 19:21:00,
2013-11-11 21:36:00,66.6,43.0,30.13,ENE,57,4.0,-999.0,43,-99.99,,,0.00,weatherlink.com 1.10,2013-11-11 19:36:00,
2013-11-11 21:51:00,67.0,43.0,30.13,ENE,59,4.0,-999.0,42,-99.99,,,0.00,weatherlink.com 1.10,2013-11-11 19:51:00,
2013-11-11 22:06:00,67.0,42.0,30.13,ENE,59,3.0,-999.0,40,-99.99,,,0.00,weatherlink.com 1.10,2013-11-11 20:06:00,
2013-11-11 22:21:00,66.8,42.0,30.13,ENE,59,0.0,-999.0,40,-99.99,,,0.00,weatherlink.com 1.10,2013-11-11 20:21:00,
2013-11-11 22:36:00,66.9,42.0,30.14,ENE,59,4.0,-999.0,40,-99.99,,,0.00,weatherlink.com 1.10,2013-11-11 20:36:00,
2013-11-11 22:51:00,66.6,43.0,30.14,ENE,57,4.0,-999.0,42,-99.99,,,0.00,weatherlink.com 1.10,2013-11-11 20:51:00,
2013-11-11 23:06:00,66.5,43.0,30.14,ENE,57,6.0,-999.0,43,-99.99,,,0.00,weatherlink.com 1.10,2013-11-11 21:06:00,
2013-11-11 23:21:00,66.6,43.0,30.14,ENE,59,6.0,-999.0,43,-99.99,,,0.00,weatherlink.com 1.10,2013-11-11 21:21:00,
2013-11-11 23:36:00,66.9,41.0,30.14,ENE,59,3.0,-999.0,39,-99.99,,,0.00,weatherlink.com 1.10,2013-11-11 21:36:00,
2013-11-11 23:51:00,67.1,41.0,30.14,ENE,59,3.0,-999.0,38,-99.99,,,0.00,weatherlink.com 1.10,2013-11-11 21:51:00,